This is the latest recevied weather packets stored in our database for station/object KD9ZDW. If no packets are shown the sender has not sent any weather packets the latest 10 day(s).
| Time | Temp. | Humidity | Pressure | Rain* | Wind** | Luminosity | Snow |
|---|---|---|---|---|---|---|---|
| 1778012471 | 8.89° C | 91% | 1010.7 hPa | 0 mm | - | 53 W/m² | - |
| 1778012168 | 8.33° C | 91% | 1010.6 hPa | 1.27 mm | - | 67 W/m² | - |
| 1778011866 | 8.89° C | 91% | 1010.7 hPa | 1.27 mm | - | 41 W/m² | - |
| 1778011563 | 8.33° C | 91% | 1010.6 hPa | 1.78 mm | - | 47 W/m² | - |
| 1778011260 | 8.89° C | 91% | 1010.9 hPa | 3.05 mm | - | 51 W/m² | - |
| 1778010956 | 8.89° C | 91% | 1010.9 hPa | 1.27 mm | - | 57 W/m² | - |
| 1778010654 | 8.89° C | 91% | 1010.6 hPa | 0 mm | - | 51 W/m² | - |
| 1778010350 | 8.89° C | 91% | 1010.9 hPa | 0 mm | - | 60 W/m² | - |
| 1778010046 | 9.44° C | 91% | 1011 hPa | 3.05 mm | - | 58 W/m² | - |
| 1778009743 | 8.89° C | 91% | 1011.2 hPa | 4.83 mm | - | 47 W/m² | - |
| 1778009440 | 9.44° C | 91% | 1011.2 hPa | 3.05 mm | - | 51 W/m² | - |
| 1778009139 | 9.44° C | 91% | 1010.9 hPa | 3.05 mm | - | 61 W/m² | - |
| 1778008836 | 9.44° C | 90% | 1011.1 hPa | 3.05 mm | - | 56 W/m² | - |
| 1778008535 | 9.44° C | 90% | 1010.8 hPa | 3.05 mm | - | 64 W/m² | - |
| 1778008232 | 9.44° C | 90% | 1010.9 hPa | 3.05 mm | - | 65 W/m² | - |
| 1778007932 | 9.44° C | 89% | 1010.9 hPa | 1.27 mm | - | 63 W/m² | - |
| 1778007629 | 9.44° C | 89% | 1010.8 hPa | 1.78 mm | - | 86 W/m² | - |
| 1778007325 | 9.44° C | 89% | 1010.9 hPa | 1.78 mm | - | 61 W/m² | - |
| 1778007022 | 10° C | 88% | 1011 hPa | 1.78 mm | - | 52 W/m² | - |
| 1778006719 | 10° C | 88% | 1011.1 hPa | 1.27 mm | - | 42 W/m² | - |
| 1778006415 | 10° C | 87% | 1011 hPa | 1.27 mm | - | 68 W/m² | - |
| 1778006112 | 10° C | 86% | 1011.1 hPa | 1.78 mm | - | 85 W/m² | - |
| 1778005809 | 10° C | 85% | 1011.3 hPa | 1.78 mm | - | 77 W/m² | - |
| 1778005506 | 10° C | 86% | 1011.2 hPa | 1.27 mm | - | 69 W/m² | - |
| 1778005202 | 10° C | 86% | 1011.1 hPa | 1.27 mm | - | 87 W/m² | - |
* Rain latest hour (hover to see other rain measurements)
** Current wind speed in m/s (hover to see current wind gust speed)